Cherry Point MCAS /Cunningham Field/
KNKT : now visible

Airfield :











YOU CAN JOIN US ON...

 
LOGIN :

Register | Disclaimer

   EN    FR    IT 

 









Legend :    VFR   Marginal VFR   IFR   Intensive IFR   Very Intensive IFR
Visi :
Ceiling :
>= 8 km
>= 3000ft
5 to 8 km
1000 to 3000 ft
1500m to 5 km
500 to 1000 ft
800 to 1500m
200 to 500 ft
< 800m
< 200 ft
Symbols :   Thunderstorms  Fog  Heavy snow  Heavy precipitations  Wind > 20 kt







- Airport Elevation : 29 ft


KNKT - Cherry Point MCAS /Cunningham Field/

CURRENT METAR :
  • 162054Z AUTO 19013G19KT 10SM FEW029 30/21 A3002 RMK AO2 SLP163 T03000206 56014 $

EXPIRED METARs :
  • 161954Z 19013G20KT 10SM CLR 30/20 A3003 RMK AO2 SLP166 T03000200 $
  • 161854Z 19014KT 10SM FEW049 FEW060 BKN075 30/21 A3005 RMK AO2 SLP173 T03000206 $

TAF TAF KNKT
Valid from the 16 at 15:00 until the 17 at 15:00 UTC


1615/1715 21010G15KT 9999 SCT035 BKN060 QNH2999INS
BECMG 1700/1702 21006KT 9999 FEW040 FEW250 QNH3001INS T32/1618Z T22/1709Z
KZDC FIR / North America



MET'MAP, your aeronautical weather chart ! - Copyright ORBIFLY December 2007 - Disclaimer

ORBIFLY MET'MAP TEAM :

Programming & Development : Alexandra Zaïnal
Concept & Development : Baudouin d'Aumeries
Co-Development & Prog : Marc-Olivier Méhu
Technical & hardware support : Manuel Goepfert

Contact : metmap@orbifly.com




SOURCES & CREDITS :

   NOAA       Earth
Advisory